www.pogodaiklimat.ru

АРХИВ ПОГОДЫ в Сан-Франциско

Время (UTC), дата Ветер
(напр.,м/с)
 
Видим.   Явления Облачность Т
(С)
Тd
(С)
f
(%)
Тe
(С)
Тes
(С)
Комфортность

P
(гПа)

Po
(гПа)
Тmin
(С)
Tmax
(С)
R
(мм)
SD
(см)
01:56 17.06 ЮЗ  16 км    2/2 390 м  +15.0  +9.0  67  +13  +13    1007.4  1007.0         
02:56 17.06 ЮЗ  16 км    5/5 420 м  +14.0  +8.0  67  +11  +11    1007.6  1007.3         
03:56 17.06 ЮЗ  16 км    2/2 420 м  +14.4  +7.8  65  +12  +12    1008.1  1007.7         
04:56 17.06 ЮЗ  16 км    2/2 450 м  +14.4  +7.8  65  +13  +13    1008.3  1008.0         
05:52 17.06 ЮЗ  16 км    10/10 450 м  +14.0  +8.0  67  +13  +13      1008.3         
05:56 17.06 ЮЗ  16 км    10/10 450 м  +14.4  +8.3  67  +13  +13    1008.8  1008.3         
06:56 17.06 Ю  16 км    10/10 510 м  +14.0  +9.0  72  +12  +12    1008.8  1008.3         
07:56 17.06 Ю  16 км    10/10 510 м  +14.4  +8.9  70  +13  +13    1008.9  1008.3         
08:56 17.06 ЮЗ  16 км    10/10 510 м  +14.4  +8.9  70  +14  +14    1009.4  1009.0         
09:56 17.06 Ю  16 км    10/10 450 м  +14.4  +9.4  72  +13  +13    1009.3  1009.0         
10:24 17.06 ЮЗ  16 км    10/10 510 м  +14.4  +9.4  72  +13  +13      1009.3         
10:46 17.06 Ю  16 км    10/10 510 м  +14.4  +9.4  72  +13  +13      1009.3         
10:56 17.06 Ю  16 км    10/10 360 м  +14.0  +9.0  72  +13  +13    1009.9  1009.3  +13.9  +15.0     
11:52 17.06 ЮЗ  16 км    10/10 690 м  +14.0  +9.0  72  +13  +13      1010.0         
11:56 17.06 ЮЗ  16 км    10/10 690 м  +14.4  +9.4  72  +13  +13    1010.7  1010.4         
12:56 17.06 ЮВ  16 км    8/8 390 м  +15.0  +10.0  72  +14  +14    1011.0  1010.7         
13:56 17.06 Ю  16 км    8/8 390 м  +16.0  +10.0  68  +14  +15    1011.3  1010.7         
14:56 17.06 Ю  16 км    5/5 480 м  +17.2  +10.0  63  +17  +17    1011.7  1011.4         
15:15 17.06 Ю  16 км    8/8 480 м  +16.7  +9.4  62  +16  +17      1011.7         
15:56 17.06 Ю  16 км    8/8 480 м  +17.8  +10.0  60  +17  +18    1012.2  1011.7         
16:56 17.06 ЮЗ  16 км    10/10 630 м  +18.0  +10.0  59  +17  +17    1012.8  1012.4  +14.4  +17.8     
17:56 17.06 Ю  16 км    8/8 720 м  +19.0  +10.0  56  +20  +21    1013.0  1012.7         
18:56 17.06 Ю  16 км    8/8 720 м  +21.0  +11.0  53  +23  +25  комфорт  1013.0  1012.7         
19:56 17.06 Ю  16 км    5/5 630 м  +21.0  +11.0  53  +23  +28  комфорт  1013.1  1012.7         
20:56 17.06 Ю  4
{7} 
16 км    2/2 600 м  +21.7  +10.6  49  +23  +33  комфорт  1013.1  1012.7         
21:56 17.06 Ю  16 км    2/2 300 м  +21.7  +10.6  49  +23  +28  комфорт  1013.2  1012.7         
22:56 17.06 Ю  16 км    2/2 300 м  +22.0  +11.0  50  +24  +30  комфорт  1013.1  1012.7  +17.8       
23:56 17.06 ЮЗ  16 км    2/2 300 м  +21.7  +10.6  49  +23  +28  комфорт  1013.1  1012.7         
00:48 18.06 З  16 км    2/2 240 м  +20.6  +10.6  53  +23  +26  комфорт    1012.7         
00:56 18.06 ЮЗ  16 км    2/2 240 м  +21.1  +10.6  51  +23  +25  комфорт  1013.3  1012.7         
01:56 18.06 З  16 км    2/2 270 м  +19.4  +10.0  55  +21  +22  комфорт  1013.5  1013.1         
02:56 18.06 З  16 км    2/2 240 м  +17.2  +11.1  67  +16  +16    1014.3  1014.1         
03:56 18.06 З  16 км    2/2 240 м  +16.7  +10.6  67  +16  +16    1015.1  1014.8         
04:56 18.06 З  16 км    2/2 240 м  +16.1  +10.6  70  +15  +15    1015.7  1015.4         
05:56 18.06 ЮЗ  16 км    2/2 240 м  +16.1  +10.6  70  +16  +16    1016.0  1015.8         
06:56 18.06 Ю  16 км    2/2 240 м  +16.1  +10.6  70  +16  +16    1016.1  1015.8         
07:56 18.06 штиль  16 км    2/2 270 м  +15.6  +10.6  72  +15  +15    1015.9  1015.4         
08:56 18.06 штиль  16 км    2/2 270 м  +15.6  +10.6  72  +15  +15    1016.0  1015.4         
09:04 18.06 штиль  16 км    2/2 270 м  +15.6  +10.6  72  +15  +15      1015.4         
09:37 18.06 З  16 км    8/8 270 м  +15.6  +10.6  72  +15  +15      1015.4         
09:56 18.06 З  16 км    8/8 270 м  +15.0  +10.6  75  +14  +14    1015.9  1015.4         
10:56 18.06 ЮЗ  16 км    10/10 330 м  +16.0  +11.0  72  +16  +16    1016.0  1015.4  +15.0       
11:56 18.06 ЮЗ  16 км    8/8 360 м  +15.6  +10.6  72  +15  +15    1016.7  1016.1         
12:56 18.06 ЮЗ  16 км    10/10 450 м  +15.6  +10.6  72  +15  +15    1017.1  1016.8         
13:56 18.06 З  16 км    10/10 450 м  +17.0  +11.0  68  +17  +17    1017.5  1017.1         
14:56 18.06 С  16 км    10/10 450 м  +17.8  +11.1  65  +18  +18    1017.9  1017.5         
15:27 18.06 С  16 км    5/5 450 м  +18.9  +11.7  63  +20  +23      1017.5         
15:56 18.06 С  16 км    2/2 570 м  +18.9  +11.7  63  +20  +24    1017.7  1017.5         

 

Местоположение метеостанции San Francisco International Airport: широта 37.6196 долгота -122.3656 высота над уровнем моря 3 м.

В архиве по умолчанию представлена погода в Сан-Франциско за последние 1-2 суток. Обновление информации о фактической погоде в базе происходит ежечасно! Архивные данные за месяц целиком и за предыдущие месяцы Вы можете получить, выбрав интересующий диапазон дат из раскрывающегося списка и нажав кнопку "Ввод!".

Внимание! Архив погоды МЕТАР в базе сайта в настоящее время начинается c 1 января 2013 г. Нет смысла пытаться выбрать более раннюю дату.

Внимание! Время в таблицах - всемирное. Для получения местного времени необходимо прибавить поправку, которая в Сан-Франциско равна -8 ч.

Ветер - указаны скорость ветра в м/с и направление, откуда дует ветер: С - северный, СВ - северо-восточный, В - восточный, ЮВ - юго-восточный, Ю - южный, ЮЗ - юго-западный, З - западный, СЗ - северо-западный.
Видимость - горизонтальная дальность видимости в метрах или километрах. При видимости от 1 до 10 км при отсутствии осадков обычно наблюдается дымка, при ухудшении видимости до 1 км и менее - туман. В сухую погоду видимость может ухудшаться дымом, пылью или мглою.
Атмосферные явления - указаны явления, наблюдавшиеся в указанный момент времени.
Облачность - указаны через наклонную черту верхняя и нижняя облачность в баллах и высота нижней границы облаков в метрах. Внимание: облачность, как и прочие метеорологические величины в США измеряются автоматическими метеостанциями. Указанные значения в баллах носят условный характер и показывают процент времени, в течение которого, в среднем, лазерный луч высотомера отражался от облаков обратно.
T - Температура воздуха - температура, измеренная на высоте 2 м над землей.
Td - Температура точки росы - температура, при понижении до которой содержащийся в воздухе водяной пар достигнет насыщения.
f - Относительная влажность воздуха - влажноcть воздуха, измеренная на высоте 2 м над землей.
Te - Эффективная температура - температура, которую ощущает одетый по сезону человек в тени. Характеристика душности погоды. При расчете учитывается влияние влажности воздуха и скорости ветра на теплоощущения человека.
Tes - Эффективная температура на солнце - температура, которую ощущает человек, с поправкой на солнечный нагрев. Характеристика знойности погоды. Зависит от высоты солнца над горизонтом, облачности и скорости ветра. Ночью, в пасмурную погоду, а также при ветре 12 м/с и более поправка равна нулю.
P - Атмосферное давление - приведенное к уровню моря атмосферное давление.
Po - Атмосферное давление - измеренное на уровне метеостанции атмосферное давление.
Tmin - Минимальная температура - минимум температуры воздуха на высоте 2 м над землей.
Tmax - Максимальная температура - максимум температуры воздуха на высоте 2 м над землей.
R - Количество осадков - Количество выпавших осадков за 3 или 6 часов, мм.
SD - Снежный покров - Высота снежного покрова, см.